Location: Tel Aviv
(32.0670°N, 34.7670°E)
Time: 13:14:52
(UTC+03:00)

Explorer 11/Cluster Stage 4 - Pass Details

Date: 13 September 2024
Orbit: 464 x 1208 km, 28.8° (Epoch: 05 October)

Event Time Altitude Azimuth Distance (km) Brightness Sun altitude
Rises 09:04:24 0° 256° (WSW) 3,845 9.7 32.8°
Reaches altitude 10° 09:07:03 10° 253° (WSW) 2,969 9.2 33.3°
Maximum altitude 09:14:33 67° 173° (S) 1,278 8.4 34.8°
Drops below altitude 10° 09:22:28 10° 93° (E) 3,135 10.8 36.4°
Sets 09:25:20 0° 90° (E) 4,070 11.1 36.9°
